Terminal Aerodrome Forecast
Issued by NWS Flagstaff, AZ

Home | Current Version | Previous Version | Text Only | Print | Product List | Glossary On
Versions: 1 2 3 4 5 6 7 8 9 10 11 12 13
000
FTUS45 KFGZ 171100
TAFINW
TAF
KINW 171120Z 1712/1812 VRB06KT P6SM SKC
     FM172100 28007KT P6SM FEW250
     FM180200 22007KT P6SM FEW250=

USA.gov is the U.S. government's official web portal to all federal, state and local government web resources and services.